CZ-6A DEB, 61346

Orbit data source: Space-Track

CZ-6A DEB, 61346 is space debris in LEO originally from a launch on Tue, 06 Aug 2024 UTC launched from the Taiyaun Space Center, China (TSC). Debris objects in space refer to the collection of defunct objects orbiting the Earth. Examples of debris include non-operational satellites, rocket bodies, and fragments generated from explosions, collisions, or faulty payload assembly.

Loading next visibility...
Identifier
61346, 2024-140VK
Orbit
LEO
Country
Flag of CNCN / PRC
Related business
Manufacturer
SAST
Mission
Spacecraft
Bus & Motor
Unknown
Mass
Unknown
Launch date (UTC)
2024-08-06 (2 years ago)
Launch vehicle
Unknown
Launch site
Taiyaun Space Center, China (TSC)
Object type
Payload
Rocket body
Debris
Shape & HBR
Unknown shape, 0.1 m
Radar Cross Section
Medium (>0.1 m² and <1 m²)

Expand to show TLE details & history
Last TLE update: 16 hours ago

TLE from 16 hours ago
0 CZ-6A DEB
1 61346U 24140VK  26171.28845100  .00029281  00000-0  29437-2 0  9995
2 61346  88.9523 264.5088 0049368 190.7959 169.2216 14.90193606 95471
Epoch: 2026-06-20T06:55Z
TLE epoch observation values (Epoch: 2026-06-20T06:55:22.166Z)
Latitude
0.00003°
Longitude
-107.83878°
Altitude
634.327 km
Speed
7.523 km/s
True Right ascension
17h 38m 02s
True Declination
0° 00' 00"
Sunlit
Object was in full shadow at epoch
Visualization orbit readout
Latitude
Unknown
Longitude
Unknown
Altitude
Unknown
Speed
Unknown
Apparent Right ascension
Unknown
Apparent Declination
Unknown
Sunlit
N/A
Visualization observer readout
Local Sidereal Time
10:17:07
Azimuth
Unknown
Elevation
Unknown
Doppler factor
Unknown
Orbital elements
Apogee altitude
628.604 km
Perigee altitude
559.762 km
Semi-major axis
6,972.32 km
Eccentricity
0.00494
Inclination
88.9523°
RAAN
264.5088°
Arg. of periapsis
190.7959°
True anomaly
169.32676°
Mean anomaly
169.2216°
Eccentric anomaly
169.27424°
Mean motion
3.72801 °/min
Orbital period
96.57 mins
BSTAR
0.0029437
Loading maneuver chart data...
Computing Atmospheric mass density...
Loading historical data...
Loading historical data...
Loading historical data...
Loading historical data...
Loading historical data...
Loading historical data...
Loading historical data...

Documentation

Showing up to 5 results
|